User: anonymous   Login
Location: Albany
(35.0000°S, 118.0000°E)
Time: 15:25:31
(UTC-05:00)
Language:

Cosmos 1933 - Orbit

View from above orbital plane
View from above orbital plane
View from above satellite
View from above satellite

Ground track
Ground track

The orbit data is extracted from the following two-line orbital elements,

1 18958U 88020A   14325.37491342  .00004754  00000-0  36838-3 0  4847
2 18958 082.5299 288.7797 0010813 226.8124 133.2198 15.01174823450552
Epoch (UTC): 21 November 2014 08:59:52
Eccentricity: 0.0010813
inclination: 82.5299°
perigee height: 556 km
apogee height: 571 km
right ascension of ascending node: 288.7797°
argument of perigee: 226.8124°
revolutions per day: 15.01174823
mean anomaly at epoch: 133.2198°
orbit number at epoch: 45055

The dashed part of the orbit path shows where the satellite is in the earth's shadow,  

DLR